owner,sensor,date,latitude,longitude,vertical_datum,sea_water_practical_salinity,qcFlag 
SCCF RECON,ioos:station:SCCF:53:1,2010-02-01T00:00:00Z,26.6493,-81.8810,2.0,14.81,1111122 
SCCF RECON,ioos:station:SCCF:53:1,2010-02-01T01:00:00Z,26.6493,-81.8810,1.96,12.13,1111122 
SCCF RECON,ioos:station:SCCF:53:1,2010-02-01T02:00:00Z,26.6493,-81.8810,1.92,11.92,1111122 
SCCF RECON,ioos:station:SCCF:53:1,2010-02-01T03:00:00Z,26.6493,-81.8810,1.887,12.34,1111122 
SCCF RECON,ioos:station:SCCF:53:1,2010-02-01T04:00:00Z,26.6493,-81.8810,1.86,12.41,1111122 
SCCF RECON,ioos:station:SCCF:53:1,2010-02-01T05:00:00Z,26.6493,-81.8810,1.902,13.0,1111122 
SCCF RECON,ioos:station:SCCF:53:1,2010-02-01T06:00:00Z,26.6493,-81.8810,1.959,12.86,1111122 
SCCF RECON,ioos:station:SCCF:53:1,2010-02-01T07:00:00Z,26.6493,-81.8810,2.011,13.58,1111122 
SCCF RECON,ioos:station:SCCF:53:1,2010-02-01T08:00:00Z,26.6493,-81.8810,2.07,15.54,1111122 
SCCF RECON,ioos:station:SCCF:53:1,2010-02-01T09:00:00Z,26.6493,-81.8810,2.13,15.33,1111122 
SCCF RECON,ioos:station:SCCF:53:1,2010-02-01T10:00:00Z,26.6493,-81.8810,2.16,15.67,1111122 
SCCF RECON,ioos:station:SCCF:53:1,2010-02-01T11:00:00Z,26.6493,-81.8810,2.142,16.08,1111122 
SCCF RECON,ioos:station:SCCF:53:1,2010-02-01T12:00:00Z,26.6493,-81.8810,2.096,16.59,1111122 
SCCF RECON,ioos:station:SCCF:53:1,2010-02-01T13:00:00Z,26.6493,-81.8810,2.057,15.58,1111122 
SCCF RECON,ioos:station:SCCF:53:1,2010-02-01T14:00:00Z,26.6493,-81.8810,2.01,15.57,1111122 
SCCF RECON,ioos:station:SCCF:53:1,2010-02-01T15:00:00Z,26.6493,-81.8810,1.96,15.66,1111122 
SCCF RECON,ioos:station:SCCF:53:1,2010-02-01T16:00:00Z,26.6493,-81.8810,1.911,15.75,1111122 
SCCF RECON,ioos:station:SCCF:53:1,2010-02-01T17:00:00Z,26.6493,-81.8810,1.87,15.42,1111122 
SCCF RECON,ioos:station:SCCF:53:1,2010-02-01T18:00:00Z,26.6493,-81.8810,1.89,14.1,1111122 
SCCF RECON,ioos:station:SCCF:53:1,2010-02-01T19:00:00Z,26.6493,-81.8810,1.94,14.01,1111122 
SCCF RECON,ioos:station:SCCF:53:1,2010-02-01T20:00:00Z,26.6493,-81.8810,1.98,14.27,1111122 
SCCF RECON,ioos:station:SCCF:53:1,2010-02-01T21:00:00Z,26.6493,-81.8810,2.04,14.26,1111122 
SCCF RECON,ioos:station:SCCF:53:1,2010-02-01T22:00:00Z,26.6493,-81.8810,2.09,14.76,1111122 
SCCF RECON,ioos:station:SCCF:53:1,2010-02-01T23:00:00Z,26.6493,-81.8810,2.12,14.67,1111122 
SCCF RECON,ioos:station:SCCF:53:1,2010-02-02T00:00:00Z,26.6493,-81.8810,2.1,15.17,1111122 
SCCF RECON,ioos:station:SCCF:53:1,2010-02-02T01:00:00Z,26.6493,-81.8810,2.051,14.95,1111122 
SCCF RECON,ioos:station:SCCF:53:1,2010-02-02T02:00:00Z,26.6493,-81.8810,2.01,14.53,1111122 
SCCF RECON,ioos:station:SCCF:53:1,2010-02-02T03:00:00Z,26.6493,-81.8810,1.961,14.7,1111122 
SCCF RECON,ioos:station:SCCF:53:1,2010-02-02T04:00:00Z,26.6493,-81.8810,1.925,14.92,1111122 
SCCF RECON,ioos:station:SCCF:53:1,2010-02-02T05:00:00Z,26.6493,-81.8810,1.927,15.15,1111122 
SCCF RECON,ioos:station:SCCF:53:1,2010-02-02T06:00:00Z,26.6493,-81.8810,2.0,15.24,1111122 
SCCF RECON,ioos:station:SCCF:53:1,2010-02-02T07:00:00Z,26.6493,-81.8810,2.05,14.66,1111122 
SCCF RECON,ioos:station:SCCF:53:1,2010-02-02T08:00:00Z,26.6493,-81.8810,2.099,14.59,1111122 
SCCF RECON,ioos:station:SCCF:53:1,2010-02-02T09:00:00Z,26.6493,-81.8810,2.16,14.97,1111122 
SCCF RECON,ioos:station:SCCF:53:1,2010-02-02T10:00:00Z,26.6493,-81.8810,2.21,15.65,1111122 
SCCF RECON,ioos:station:SCCF:53:1,2010-02-02T11:00:00Z,26.6493,-81.8810,2.23,15.07,1111122 
SCCF RECON,ioos:station:SCCF:53:1,2010-02-02T12:00:00Z,26.6493,-81.8810,2.2,15.01,1111122 
SCCF RECON,ioos:station:SCCF:53:1,2010-02-02T13:00:00Z,26.6493,-81.8810,2.15,14.37,1111122 
SCCF RECON,ioos:station:SCCF:53:1,2010-02-02T14:00:00Z,26.6493,-81.8810,2.1,14.19,1111122 
SCCF RECON,ioos:station:SCCF:53:1,2010-02-02T15:00:00Z,26.6493,-81.8810,2.058,13.91,1111122 
SCCF RECON,ioos:station:SCCF:53:1,2010-02-02T16:00:00Z,26.6493,-81.8810,2.01,13.83,1111122 
SCCF RECON,ioos:station:SCCF:53:1,2010-02-02T17:00:00Z,26.6493,-81.8810,1.96,13.69,1111122 
SCCF RECON,ioos:station:SCCF:53:1,2010-02-02T18:00:00Z,26.6493,-81.8810,1.981,13.99,1111122 
SCCF RECON,ioos:station:SCCF:53:1,2010-02-02T19:00:00Z,26.6493,-81.8810,2.05,14.03,1111122 
SCCF RECON,ioos:station:SCCF:53:1,2010-02-02T20:00:00Z,26.6493,-81.8810,2.11,14.17,1111122 
SCCF RECON,ioos:station:SCCF:53:1,2010-02-02T21:00:00Z,26.6493,-81.8810,2.18,14.75,1111122 
SCCF RECON,ioos:station:SCCF:53:1,2010-02-02T22:00:00Z,26.6493,-81.8810,2.24,14.8,1111122 
SCCF RECON,ioos:station:SCCF:53:1,2010-02-02T23:00:00Z,26.6493,-81.8810,2.28,14.76,1111122 
SCCF RECON,ioos:station:SCCF:53:1,2010-02-03T00:00:00Z,26.6493,-81.8810,2.27,14.29,1111122 
SCCF RECON,ioos:station:SCCF:53:1,2010-02-03T01:00:00Z,26.6493,-81.8810,2.23,14.2,1111122 
SCCF RECON,ioos:station:SCCF:53:1,2010-02-03T02:00:00Z,26.6493,-81.8810,2.18,13.8,1111122 
SCCF RECON,ioos:station:SCCF:53:1,2010-02-03T03:00:00Z,26.6493,-81.8810,2.14,14.29,1111122 
SCCF RECON,ioos:station:SCCF:53:1,2010-02-03T04:00:00Z,26.6493,-81.8810,2.082,14.6,1111122 
SCCF RECON,ioos:station:SCCF:53:1,2010-02-03T05:00:00Z,26.6493,-81.8810,2.04,14.81,1111122 
SCCF RECON,ioos:station:SCCF:53:1,2010-02-03T06:00:00Z,26.6493,-81.8810,2.01,14.92,1111122 
SCCF RECON,ioos:station:SCCF:53:1,2010-02-03T07:00:00Z,26.6493,-81.8810,2.028,15.33,1111122 
SCCF RECON,ioos:station:SCCF:53:1,2010-02-03T08:00:00Z,26.6493,-81.8810,2.07,15.85,1111122 
SCCF RECON,ioos:station:SCCF:53:1,2010-02-03T09:00:00Z,26.6493,-81.8810,2.1,16.0,1111122 
SCCF RECON,ioos:station:SCCF:53:1,2010-02-03T10:00:00Z,26.6493,-81.8810,2.145,16.08,1111122 
SCCF RECON,ioos:station:SCCF:53:1,2010-02-03T11:00:00Z,26.6493,-81.8810,2.17,16.07,1111122 
SCCF RECON,ioos:station:SCCF:53:1,2010-02-03T12:00:00Z,26.6493,-81.8810,2.15,16.24,1111122 
SCCF RECON,ioos:station:SCCF:53:1,2010-02-03T13:00:00Z,26.6493,-81.8810,2.102,16.32,1111122 
SCCF RECON,ioos:station:SCCF:53:1,2010-02-03T14:00:00Z,26.6493,-81.8810,2.06,16.36,1111122 
SCCF RECON,ioos:station:SCCF:53:1,2010-02-03T15:00:00Z,26.6493,-81.8810,2.02,16.57,1111122 
SCCF RECON,ioos:station:SCCF:53:1,2010-02-03T16:00:00Z,26.6493,-81.8810,1.976,16.77,1111122 
SCCF RECON,ioos:station:SCCF:53:1,2010-02-03T17:00:00Z,26.6493,-81.8810,1.93,17.11,1111122 
SCCF RECON,ioos:station:SCCF:53:1,2010-02-03T18:00:00Z,26.6493,-81.8810,1.89,16.81,1111122 
SCCF RECON,ioos:station:SCCF:53:1,2010-02-03T19:00:00Z,26.6493,-81.8810,1.91,15.77,1111122 
SCCF RECON,ioos:station:SCCF:53:1,2010-02-03T20:00:00Z,26.6493,-81.8810,1.97,15.0,1111122 
SCCF RECON,ioos:station:SCCF:53:1,2010-02-03T21:00:00Z,26.6493,-81.8810,2.01,14.98,1111122 
SCCF RECON,ioos:station:SCCF:53:1,2010-02-03T22:00:00Z,26.6493,-81.8810,2.061,16.25,1111122 
SCCF RECON,ioos:station:SCCF:53:1,2010-02-03T23:00:00Z,26.6493,-81.8810,2.12,16.69,1111122 
SCCF RECON,ioos:station:SCCF:53:1,2010-02-04T00:00:00Z,26.6493,-81.8810,2.155,16.1,1111122 
SCCF RECON,ioos:station:SCCF:53:1,2010-02-04T01:00:00Z,26.6493,-81.8810,2.14,15.66,1111122 
SCCF RECON,ioos:station:SCCF:53:1,2010-02-04T02:00:00Z,26.6493,-81.8810,2.091,16.67,1111122 
SCCF RECON,ioos:station:SCCF:53:1,2010-02-04T03:00:00Z,26.6493,-81.8810,2.05,16.1,1111122 
SCCF RECON,ioos:station:SCCF:53:1,2010-02-04T04:00:00Z,26.6493,-81.8810,2.0,16.49,1111122 
SCCF RECON,ioos:station:SCCF:53:1,2010-02-04T05:00:00Z,26.6493,-81.8810,1.948,17.09,1111122 
SCCF RECON,ioos:station:SCCF:53:1,2010-02-04T06:00:00Z,26.6493,-81.8810,1.907,16.64,1111122 
SCCF RECON,ioos:station:SCCF:53:1,2010-02-04T07:00:00Z,26.6493,-81.8810,1.882,14.74,1111122 
SCCF RECON,ioos:station:SCCF:53:1,2010-02-04T08:00:00Z,26.6493,-81.8810,1.89,15.24,1111122 
SCCF RECON,ioos:station:SCCF:53:1,2010-02-04T09:00:00Z,26.6493,-81.8810,1.92,14.5,1111122 
SCCF RECON,ioos:station:SCCF:53:1,2010-02-04T10:00:00Z,26.6493,-81.8810,1.941,15.02,1111122 
SCCF RECON,ioos:station:SCCF:53:1,2010-02-04T11:00:00Z,26.6493,-81.8810,1.97,15.3,1111122 
SCCF RECON,ioos:station:SCCF:53:1,2010-02-04T12:00:00Z,26.6493,-81.8810,2.0,15.02,1111122 
SCCF RECON,ioos:station:SCCF:53:1,2010-02-04T13:00:00Z,26.6493,-81.8810,2.01,15.07,1111122 
SCCF RECON,ioos:station:SCCF:53:1,2010-02-04T14:00:00Z,26.6493,-81.8810,1.995,15.55,1111122 
SCCF RECON,ioos:station:SCCF:53:1,2010-02-04T15:00:00Z,26.6493,-81.8810,1.968,15.98,1111122 
SCCF RECON,ioos:station:SCCF:53:1,2010-02-04T16:00:00Z,26.6493,-81.8810,1.937,15.52,1111122 
SCCF RECON,ioos:station:SCCF:53:1,2010-02-04T17:00:00Z,26.6493,-81.8810,1.899,16.21,1111122 
SCCF RECON,ioos:station:SCCF:53:1,2010-02-04T18:00:00Z,26.6493,-81.8810,1.87,16.12,1111122 
SCCF RECON,ioos:station:SCCF:53:1,2010-02-04T19:00:00Z,26.6493,-81.8810,1.91,15.62,1111122 
SCCF RECON,ioos:station:SCCF:53:1,2010-02-04T20:00:00Z,26.6493,-81.8810,1.96,15.2,1111122 
SCCF RECON,ioos:station:SCCF:53:1,2010-02-04T21:00:00Z,26.6493,-81.8810,2.002,15.18,1111122 
SCCF RECON,ioos:station:SCCF:53:1,2010-02-04T22:00:00Z,26.6493,-81.8810,2.067,14.79,1111122 
SCCF RECON,ioos:station:SCCF:53:1,2010-02-04T23:00:00Z,26.6493,-81.8810,2.12,15.16,1111122 
SCCF RECON,ioos:station:SCCF:53:1,2010-02-05T00:00:00Z,26.6493,-81.8810,2.17,15.88,1111122 
SCCF RECON,ioos:station:SCCF:53:1,2010-02-05T01:00:00Z,26.6493,-81.8810,2.2,15.78,1111122 
SCCF RECON,ioos:station:SCCF:53:1,2010-02-05T02:00:00Z,26.6493,-81.8810,2.183,16.26,1111122 
SCCF RECON,ioos:station:SCCF:53:1,2010-02-05T03:00:00Z,26.6493,-81.8810,2.13,15.66,1111122 
SCCF RECON,ioos:station:SCCF:53:1,2010-02-05T04:00:00Z,26.6493,-81.8810,2.07,14.85,1111122 
SCCF RECON,ioos:station:SCCF:53:1,2010-02-05T05:00:00Z,26.6493,-81.8810,2.02,15.5,1111122 
SCCF RECON,ioos:station:SCCF:53:1,2010-02-05T06:00:00Z,26.6493,-81.8810,1.97,15.67,1111122 
SCCF RECON,ioos:station:SCCF:53:1,2010-02-05T07:00:00Z,26.6493,-81.8810,1.92,16.03,1111122 
SCCF RECON,ioos:station:SCCF:53:1,2010-02-05T08:00:00Z,26.6493,-81.8810,1.891,15.97,1111122 
SCCF RECON,ioos:station:SCCF:53:1,2010-02-05T09:00:00Z,26.6493,-81.8810,1.91,15.29,1111122 
SCCF RECON,ioos:station:SCCF:53:1,2010-02-05T10:00:00Z,26.6493,-81.8810,1.94,15.43,1111122 
SCCF RECON,ioos:station:SCCF:53:1,2010-02-05T11:00:00Z,26.6493,-81.8810,1.98,15.47,1111122 
SCCF RECON,ioos:station:SCCF:53:1,2010-02-05T12:00:00Z,26.6493,-81.8810,2.024,15.08,1111122 
SCCF RECON,ioos:station:SCCF:53:1,2010-02-05T13:00:00Z,26.6493,-81.8810,2.06,15.67,1111122 
SCCF RECON,ioos:station:SCCF:53:1,2010-02-05T14:00:00Z,26.6493,-81.8810,2.1,16.35,1111122 
SCCF RECON,ioos:station:SCCF:53:1,2010-02-05T15:00:00Z,26.6493,-81.8810,2.133,16.25,1111122 
SCCF RECON,ioos:station:SCCF:53:1,2010-02-05T16:00:00Z,26.6493,-81.8810,2.16,15.47,1111122 
SCCF RECON,ioos:station:SCCF:53:1,2010-02-05T17:00:00Z,26.6493,-81.8810,2.183,15.29,1111122 
SCCF RECON,ioos:station:SCCF:53:1,2010-02-05T18:00:00Z,26.6493,-81.8810,2.198,13.89,1111122 
SCCF RECON,ioos:station:SCCF:53:1,2010-02-05T19:00:00Z,26.6493,-81.8810,2.209,13.35,1111122 
SCCF RECON,ioos:station:SCCF:53:1,2010-02-05T20:00:00Z,26.6493,-81.8810,2.236,14.14,1111122 
SCCF RECON,ioos:station:SCCF:53:1,2010-02-05T21:00:00Z,26.6493,-81.8810,2.27,13.86,1111122 
SCCF RECON,ioos:station:SCCF:53:1,2010-02-05T22:00:00Z,26.6493,-81.8810,2.32,13.69,1111122 
SCCF RECON,ioos:station:SCCF:53:1,2010-02-05T23:00:00Z,26.6493,-81.8810,2.374,13.56,1111122 
SCCF RECON,ioos:station:SCCF:53:1,2010-02-06T00:00:00Z,26.6493,-81.8810,2.44,13.67,1111122 
SCCF RECON,ioos:station:SCCF:53:1,2010-02-06T01:00:00Z,26.6493,-81.8810,2.42,14.27,1111122 
SCCF RECON,ioos:station:SCCF:53:1,2010-02-06T02:00:00Z,26.6493,-81.8810,2.378,14.03,1111122 
SCCF RECON,ioos:station:SCCF:53:1,2010-02-06T03:00:00Z,26.6493,-81.8810,2.34,13.51,1111122 
SCCF RECON,ioos:station:SCCF:53:1,2010-02-06T04:00:00Z,26.6493,-81.8810,2.281,12.5,1111122 
SCCF RECON,ioos:station:SCCF:53:1,2010-02-06T05:00:00Z,26.6493,-81.8810,2.23,12.3,1111122 
SCCF RECON,ioos:station:SCCF:53:1,2010-02-06T06:00:00Z,26.6493,-81.8810,2.17,12.18,1111122 
SCCF RECON,ioos:station:SCCF:53:1,2010-02-06T07:00:00Z,26.6493,-81.8810,2.11,11.74,1111122 
SCCF RECON,ioos:station:SCCF:53:1,2010-02-06T08:00:00Z,26.6493,-81.8810,2.05,12.16,1111122 
SCCF RECON,ioos:station:SCCF:53:1,2010-02-06T09:00:00Z,26.6493,-81.8810,2.0,12.16,1111122 
SCCF RECON,ioos:station:SCCF:53:1,2010-02-06T10:00:00Z,26.6493,-81.8810,1.96,11.69,1111122 
SCCF RECON,ioos:station:SCCF:53:1,2010-02-06T11:00:00Z,26.6493,-81.8810,1.94,11.8,1111122 
SCCF RECON,ioos:station:SCCF:53:1,2010-02-06T12:00:00Z,26.6493,-81.8810,1.96,12.54,1111122 
SCCF RECON,ioos:station:SCCF:53:1,2010-02-06T13:00:00Z,26.6493,-81.8810,2.002,12.87,1111122 
SCCF RECON,ioos:station:SCCF:53:1,2010-02-06T14:00:00Z,26.6493,-81.8810,2.039,13.33,1111122 
SCCF RECON,ioos:station:SCCF:53:1,2010-02-06T15:00:00Z,26.6493,-81.8810,2.059,12.78,1111122 
SCCF RECON,ioos:station:SCCF:53:1,2010-02-06T16:00:00Z,26.6493,-81.8810,2.083,11.91,1111122 
SCCF RECON,ioos:station:SCCF:53:1,2010-02-06T17:00:00Z,26.6493,-81.8810,2.102,11.7,1111122 
SCCF RECON,ioos:station:SCCF:53:1,2010-02-06T18:00:00Z,26.6493,-81.8810,2.1,11.69,1111122 
SCCF RECON,ioos:station:SCCF:53:1,2010-02-06T19:00:00Z,26.6493,-81.8810,2.102,11.68,1111122 
SCCF RECON,ioos:station:SCCF:53:1,2010-02-06T20:00:00Z,26.6493,-81.8810,2.108,11.66,1111122 
SCCF RECON,ioos:station:SCCF:53:1,2010-02-06T21:00:00Z,26.6493,-81.8810,2.123,11.75,1111122 
SCCF RECON,ioos:station:SCCF:53:1,2010-02-06T22:00:00Z,26.6493,-81.8810,2.158,12.29,1111122 
SCCF RECON,ioos:station:SCCF:53:1,2010-02-06T23:00:00Z,26.6493,-81.8810,2.189,12.91,1111122 
SCCF RECON,ioos:station:SCCF:53:1,2010-02-07T00:00:00Z,26.6493,-81.8810,2.21,12.93,1111122 
SCCF RECON,ioos:station:SCCF:53:1,2010-02-07T01:00:00Z,26.6493,-81.8810,2.22,12.61,1111122 
SCCF RECON,ioos:station:SCCF:53:1,2010-02-07T02:00:00Z,26.6493,-81.8810,2.224,12.61,1111122 
SCCF RECON,ioos:station:SCCF:53:1,2010-02-07T03:00:00Z,26.6493,-81.8810,2.19,12.8,1111122 
SCCF RECON,ioos:station:SCCF:53:1,2010-02-07T04:00:00Z,26.6493,-81.8810,2.151,12.12,1111122 
SCCF RECON,ioos:station:SCCF:53:1,2010-02-07T05:00:00Z,26.6493,-81.8810,2.117,11.97,1111122 
SCCF RECON,ioos:station:SCCF:53:1,2010-02-07T06:00:00Z,26.6493,-81.8810,2.07,11.78,1111122 
SCCF RECON,ioos:station:SCCF:53:1,2010-02-07T07:00:00Z,26.6493,-81.8810,2.014,11.23,1111122 
SCCF RECON,ioos:station:SCCF:53:1,2010-02-07T08:00:00Z,26.6493,-81.8810,1.97,11.53,1111122 
SCCF RECON,ioos:station:SCCF:53:1,2010-02-07T09:00:00Z,26.6493,-81.8810,1.93,11.39,1111122 
SCCF RECON,ioos:station:SCCF:53:1,2010-02-07T10:00:00Z,26.6493,-81.8810,1.88,13.8,1111122 
SCCF RECON,ioos:station:SCCF:53:1,2010-02-07T11:00:00Z,26.6493,-81.8810,1.85,12.74,1111122 
SCCF RECON,ioos:station:SCCF:53:1,2010-02-07T12:00:00Z,26.6493,-81.8810,1.82,14.21,1111122 
SCCF RECON,ioos:station:SCCF:53:1,2010-02-07T13:00:00Z,26.6493,-81.8810,1.8,14.72,1111122 
SCCF RECON,ioos:station:SCCF:53:1,2010-02-07T14:00:00Z,26.6493,-81.8810,1.801,14.46,1111122 
SCCF RECON,ioos:station:SCCF:53:1,2010-02-07T15:00:00Z,26.6493,-81.8810,1.805,13.93,1111122 
SCCF RECON,ioos:station:SCCF:53:1,2010-02-07T16:00:00Z,26.6493,-81.8810,1.837,13.34,1111122 
SCCF RECON,ioos:station:SCCF:53:1,2010-02-07T17:00:00Z,26.6493,-81.8810,1.856,13.25,1111122 
SCCF RECON,ioos:station:SCCF:53:1,2010-02-07T18:00:00Z,26.6493,-81.8810,1.863,13.46,1111122 
SCCF RECON,ioos:station:SCCF:53:1,2010-02-07T19:00:00Z,26.6493,-81.8810,1.885,13.24,1111122 
SCCF RECON,ioos:station:SCCF:53:1,2010-02-07T20:00:00Z,26.6493,-81.8810,1.91,14.7,1111122 
SCCF RECON,ioos:station:SCCF:53:1,2010-02-07T21:00:00Z,26.6493,-81.8810,1.92,14.08,1111122 
SCCF RECON,ioos:station:SCCF:53:1,2010-02-07T22:00:00Z,26.6493,-81.8810,1.953,12.86,1111122 
SCCF RECON,ioos:station:SCCF:53:1,2010-02-07T23:00:00Z,26.6493,-81.8810,1.99,11.45,1111122 
SCCF RECON,ioos:station:SCCF:53:1,2010-02-08T00:00:00Z,26.6493,-81.8810,2.038,13.54,1111122 
SCCF RECON,ioos:station:SCCF:53:1,2010-02-08T01:00:00Z,26.6493,-81.8810,2.09,12.96,1111122 
SCCF RECON,ioos:station:SCCF:53:1,2010-02-08T02:00:00Z,26.6493,-81.8810,2.126,12.45,1111122 
SCCF RECON,ioos:station:SCCF:53:1,2010-02-08T03:00:00Z,26.6493,-81.8810,2.15,13.0,1111122 
SCCF RECON,ioos:station:SCCF:53:1,2010-02-08T04:00:00Z,26.6493,-81.8810,2.13,13.2,1111122 
SCCF RECON,ioos:station:SCCF:53:1,2010-02-08T05:00:00Z,26.6493,-81.8810,2.08,12.37,1111122 
SCCF RECON,ioos:station:SCCF:53:1,2010-02-08T06:00:00Z,26.6493,-81.8810,2.05,13.65,1111122 
SCCF RECON,ioos:station:SCCF:53:1,2010-02-08T07:00:00Z,26.6493,-81.8810,2.0,13.62,1111122 
SCCF RECON,ioos:station:SCCF:53:1,2010-02-08T08:00:00Z,26.6493,-81.8810,1.958,13.62,1111122 
SCCF RECON,ioos:station:SCCF:53:1,2010-02-08T09:00:00Z,26.6493,-81.8810,1.91,13.38,1111122 
SCCF RECON,ioos:station:SCCF:53:1,2010-02-08T10:00:00Z,26.6493,-81.8810,1.87,13.46,1111122 
SCCF RECON,ioos:station:SCCF:53:1,2010-02-08T11:00:00Z,26.6493,-81.8810,1.84,13.48,1111122 
SCCF RECON,ioos:station:SCCF:53:1,2010-02-08T12:00:00Z,26.6493,-81.8810,1.82,13.06,1111122 
SCCF RECON,ioos:station:SCCF:53:1,2010-02-08T13:00:00Z,26.6493,-81.8810,1.82,12.93,1111122 
SCCF RECON,ioos:station:SCCF:53:1,2010-02-08T14:00:00Z,26.6493,-81.8810,1.82,12.31,1111122 
SCCF RECON,ioos:station:SCCF:53:1,2010-02-08T15:00:00Z,26.6493,-81.8810,1.84,12.67,1111122 
SCCF RECON,ioos:station:SCCF:53:1,2010-02-08T16:00:00Z,26.6493,-81.8810,1.87,12.79,1111122 
SCCF RECON,ioos:station:SCCF:53:1,2010-02-08T17:00:00Z,26.6493,-81.8810,1.9,13.16,1111122 
SCCF RECON,ioos:station:SCCF:53:1,2010-02-08T18:00:00Z,26.6493,-81.8810,1.93,13.11,1111122 
SCCF RECON,ioos:station:SCCF:53:1,2010-02-08T19:00:00Z,26.6493,-81.8810,1.96,13.21,1111122 
SCCF RECON,ioos:station:SCCF:53:1,2010-02-08T20:00:00Z,26.6493,-81.8810,1.983,13.13,1111122 
SCCF RECON,ioos:station:SCCF:53:1,2010-02-08T21:00:00Z,26.6493,-81.8810,2.02,13.36,1111122 
SCCF RECON,ioos:station:SCCF:53:1,2010-02-08T22:00:00Z,26.6493,-81.8810,2.053,13.69,1111122 
SCCF RECON,ioos:station:SCCF:53:1,2010-02-08T23:00:00Z,26.6493,-81.8810,2.09,13.72,1111122 
SCCF RECON,ioos:station:SCCF:53:1,2010-02-09T00:00:00Z,26.6493,-81.8810,2.135,13.77,1111122 
SCCF RECON,ioos:station:SCCF:53:1,2010-02-09T01:00:00Z,26.6493,-81.8810,2.18,13.64,1111122 
SCCF RECON,ioos:station:SCCF:53:1,2010-02-09T02:00:00Z,26.6493,-81.8810,2.22,13.69,1111122 
SCCF RECON,ioos:station:SCCF:53:1,2010-02-09T03:00:00Z,26.6493,-81.8810,2.26,13.77,1111122 
SCCF RECON,ioos:station:SCCF:53:1,2010-02-09T04:00:00Z,26.6493,-81.8810,2.28,14.01,1111122 
SCCF RECON,ioos:station:SCCF:53:1,2010-02-09T05:00:00Z,26.6493,-81.8810,2.26,13.65,1111122 
SCCF RECON,ioos:station:SCCF:53:1,2010-02-09T06:00:00Z,26.6493,-81.8810,2.22,14.07,1111122 
SCCF RECON,ioos:station:SCCF:53:1,2010-02-09T07:00:00Z,26.6493,-81.8810,2.17,13.7,1111122 
SCCF RECON,ioos:station:SCCF:53:1,2010-02-09T08:00:00Z,26.6493,-81.8810,2.11,13.67,1111122 
SCCF RECON,ioos:station:SCCF:53:1,2010-02-09T09:00:00Z,26.6493,-81.8810,2.059,14.18,1111122 
SCCF RECON,ioos:station:SCCF:53:1,2010-02-09T10:00:00Z,26.6493,-81.8810,2.0,14.18,1111122 
SCCF RECON,ioos:station:SCCF:53:1,2010-02-09T11:00:00Z,26.6493,-81.8810,1.95,14.13,1111122 
SCCF RECON,ioos:station:SCCF:53:1,2010-02-09T12:00:00Z,26.6493,-81.8810,1.9,14.26,1111122 
SCCF RECON,ioos:station:SCCF:53:1,2010-02-09T13:00:00Z,26.6493,-81.8810,1.87,14.29,1111122 
SCCF RECON,ioos:station:SCCF:53:1,2010-02-09T14:00:00Z,26.6493,-81.8810,1.87,14.26,1111122 
SCCF RECON,ioos:station:SCCF:53:1,2010-02-09T15:00:00Z,26.6493,-81.8810,1.89,13.83,1111122 
SCCF RECON,ioos:station:SCCF:53:1,2010-02-09T16:00:00Z,26.6493,-81.8810,1.933,13.2,1111122 
SCCF RECON,ioos:station:SCCF:53:1,2010-02-09T17:00:00Z,26.6493,-81.8810,1.981,13.85,1111122 
SCCF RECON,ioos:station:SCCF:53:1,2010-02-09T18:00:00Z,26.6493,-81.8810,2.035,12.56,1111122 
SCCF RECON,ioos:station:SCCF:53:1,2010-02-09T19:00:00Z,26.6493,-81.8810,2.068,12.88,1111122 
SCCF RECON,ioos:station:SCCF:53:1,2010-02-09T20:00:00Z,26.6493,-81.8810,2.11,13.04,1111122 
SCCF RECON,ioos:station:SCCF:53:1,2010-02-09T21:00:00Z,26.6493,-81.8810,2.148,13.02,1111122 
SCCF RECON,ioos:station:SCCF:53:1,2010-02-09T22:00:00Z,26.6493,-81.8810,2.177,12.95,1111122 
SCCF RECON,ioos:station:SCCF:53:1,2010-02-09T23:00:00Z,26.6493,-81.8810,2.209,12.78,1111122 
SCCF RECON,ioos:station:SCCF:53:1,2010-02-10T00:00:00Z,26.6493,-81.8810,2.257,12.74,1111122 
SCCF RECON,ioos:station:SCCF:53:1,2010-02-10T01:00:00Z,26.6493,-81.8810,2.306,13.5,1111122 
SCCF RECON,ioos:station:SCCF:53:1,2010-02-10T02:00:00Z,26.6493,-81.8810,2.354,14.27,1111122 
SCCF RECON,ioos:station:SCCF:53:1,2010-02-10T03:00:00Z,26.6493,-81.8810,2.403,13.94,1111122 
SCCF RECON,ioos:station:SCCF:53:1,2010-02-10T04:00:00Z,26.6493,-81.8810,2.44,14.38,1111122 
SCCF RECON,ioos:station:SCCF:53:1,2010-02-10T05:00:00Z,26.6493,-81.8810,2.432,14.06,1111122 
SCCF RECON,ioos:station:SCCF:53:1,2010-02-10T06:00:00Z,26.6493,-81.8810,2.391,13.9,1111122 
SCCF RECON,ioos:station:SCCF:53:1,2010-02-10T07:00:00Z,26.6493,-81.8810,2.341,12.98,1111122 
SCCF RECON,ioos:station:SCCF:53:1,2010-02-10T08:00:00Z,26.6493,-81.8810,2.286,12.55,1111122 
SCCF RECON,ioos:station:SCCF:53:1,2010-02-10T09:00:00Z,26.6493,-81.8810,2.23,12.31,1111122 
SCCF RECON,ioos:station:SCCF:53:1,2010-02-10T10:00:00Z,26.6493,-81.8810,2.176,11.64,1111122 
SCCF RECON,ioos:station:SCCF:53:1,2010-02-10T11:00:00Z,26.6493,-81.8810,2.13,11.43,1111122 
SCCF RECON,ioos:station:SCCF:53:1,2010-02-10T12:00:00Z,26.6493,-81.8810,2.091,11.18,1111122 
SCCF RECON,ioos:station:SCCF:53:1,2010-02-10T13:00:00Z,26.6493,-81.8810,2.043,10.96,1111122 
SCCF RECON,ioos:station:SCCF:53:1,2010-02-10T14:00:00Z,26.6493,-81.8810,1.996,10.79,1111122 
SCCF RECON,ioos:station:SCCF:53:1,2010-02-10T15:00:00Z,26.6493,-81.8810,1.952,10.61,1111122 
SCCF RECON,ioos:station:SCCF:53:1,2010-02-10T16:00:00Z,26.6493,-81.8810,1.914,10.48,1111122 
SCCF RECON,ioos:station:SCCF:53:1,2010-02-10T17:00:00Z,26.6493,-81.8810,1.885,10.41,1111122 
SCCF RECON,ioos:station:SCCF:53:1,2010-02-10T18:00:00Z,26.6493,-81.8810,1.877,10.07,1111122 
SCCF RECON,ioos:station:SCCF:53:1,2010-02-10T19:00:00Z,26.6493,-81.8810,1.883,10.76,1111122 
SCCF RECON,ioos:station:SCCF:53:1,2010-02-10T20:00:00Z,26.6493,-81.8810,1.889,11.14,1111122 
SCCF RECON,ioos:station:SCCF:53:1,2010-02-10T21:00:00Z,26.6493,-81.8810,1.86,10.59,1111122 
SCCF RECON,ioos:station:SCCF:53:1,2010-02-10T22:00:00Z,26.6493,-81.8810,1.846,10.33,1111122 
SCCF RECON,ioos:station:SCCF:53:1,2010-02-10T23:00:00Z,26.6493,-81.8810,1.858,10.05,1111122 
SCCF RECON,ioos:station:SCCF:53:1,2010-02-11T00:00:00Z,26.6493,-81.8810,1.86,9.92,1111122 
SCCF RECON,ioos:station:SCCF:53:1,2010-02-11T01:00:00Z,26.6493,-81.8810,1.9,11.73,1111122 
SCCF RECON,ioos:station:SCCF:53:1,2010-02-11T02:00:00Z,26.6493,-81.8810,1.94,11.82,1111122 
SCCF RECON,ioos:station:SCCF:53:1,2010-02-11T03:00:00Z,26.6493,-81.8810,1.98,12.75,1111122 
SCCF RECON,ioos:station:SCCF:53:1,2010-02-11T04:00:00Z,26.6493,-81.8810,2.027,12.56,1111122 
SCCF RECON,ioos:station:SCCF:53:1,2010-02-11T05:00:00Z,26.6493,-81.8810,2.055,12.8,1111122 
SCCF RECON,ioos:station:SCCF:53:1,2010-02-11T06:00:00Z,26.6493,-81.8810,2.07,13.16,1111122 
SCCF RECON,ioos:station:SCCF:53:1,2010-02-11T07:00:00Z,26.6493,-81.8810,2.06,12.8,1111122 
SCCF RECON,ioos:station:SCCF:53:1,2010-02-11T08:00:00Z,26.6493,-81.8810,2.02,12.5,1111122 
SCCF RECON,ioos:station:SCCF:53:1,2010-02-11T09:00:00Z,26.6493,-81.8810,1.99,12.84,1111122 
SCCF RECON,ioos:station:SCCF:53:1,2010-02-11T10:00:00Z,26.6493,-81.8810,1.94,12.94,1111122 
SCCF RECON,ioos:station:SCCF:53:1,2010-02-11T11:00:00Z,26.6493,-81.8810,1.9,13.08,1111122 
SCCF RECON,ioos:station:SCCF:53:1,2010-02-11T12:00:00Z,26.6493,-81.8810,1.86,13.19,1111122 
SCCF RECON,ioos:station:SCCF:53:1,2010-02-11T13:00:00Z,26.6493,-81.8810,1.82,13.46,1111122 
SCCF RECON,ioos:station:SCCF:53:1,2010-02-11T14:00:00Z,26.6493,-81.8810,1.78,12.25,1111122 
SCCF RECON,ioos:station:SCCF:53:1,2010-02-11T15:00:00Z,26.6493,-81.8810,1.76,10.06,1111122 
SCCF RECON,ioos:station:SCCF:53:1,2010-02-11T16:00:00Z,26.6493,-81.8810,1.74,11.41,1111122 
SCCF RECON,ioos:station:SCCF:53:1,2010-02-11T17:00:00Z,26.6493,-81.8810,1.781,12.65,1111122 
SCCF RECON,ioos:station:SCCF:53:1,2010-02-11T18:00:00Z,26.6493,-81.8810,1.81,11.65,1111122 